Meath Environmental Platform

Observations for Trim Patrick St

Time AQI Temp °C Hum % Pres Pa CO μg/m³ H₂S μg/m³ NO μg/m³ NO₂ μg/m³ O₃ μg/m³ SO₂ μg/m³ PM1 μg/m³ PM2.5 μg/m³ PM10 μg/m³
Wednesday 5 August 2026
14:19 2 21.2 55 73,978 0 0 2.66 12.12 71.37 2.97 2 6.1 6.71
14:18 2 21.2 56 74,118 0 0 2.85 9.34 60.49 2.88 2 6.05 6.66
14:17 2 21.1 56 74,344 0 3.49 2.88 11.54 67.11 3.33 2 6.04 6.65
14:16 2 21.1 58 74,538 0 6.79 2.92 13.33 73.76 4.33 2 5.94 6.53
14:15 2 21.1 58 74,619 0 6.66 3.06 21.13 67.71 3.08 2 5.9 6.49
14:14 2 21 58 74,630 0 5.18 2.96 14.81 70.89 3.62 2 5.93 6.52
14:13 2 21 57 74,660 0 7.45 2.75 12.71 73.95 3.39 2 5.98 6.58
14:12 2 21 58 74,673 0 8.19 2.65 18.88 71.9 3.71 2 5.91 6.51
14:11 2 21 57 74,669 0 7.27 2.43 15.82 70.07 3.56 2 5.95 6.55
14:10 2 21 59 74,673 0 9.72 2.36 18.09 73.22 3.19 2 5.86 6.44
14:09 2 21 58 74,671 0 12.15 2.44 22.57 71.86 3.89 2 5.88 6.47
14:08 2 21 58 74,669 0 10.85 2.43 28.78 69.17 3.61 2 5.93 6.52
14:07 2 21 57 74,664 0 6.58 2.13 21.93 65.52 2.5 2 5.98 6.58
14:06 2 21 57 74,677 0 9.38 2.43 18.13 69.51 3.31 2 5.99 6.59
14:05 2 21 59 74,717 0 13.57 2.52 24.55 75.16 4.64 2 5.84 6.42
14:04 2 21 57 74,719 0 11.33 2.33 27.6 70.23 3.08 2 5.98 6.58
14:03 2 21 57 74,695 0 8.64 2.28 21.68 69.54 2.45 2 5.97 6.56
14:02 2 20.9 57 74,713 0 11.65 2.57 18.24 74.33 3.73 2 5.97 6.56
14:01 2 20.9 58 74,746 0 12.23 2.68 29.76 71.29 3.44 2 5.88 6.47
14:00 2 20.8 57 74,756 0 12.62 2.68 23.26 74.06 3.3 2 5.95 6.55